Weather reports worldwide

Advertisment
Waldmünchen, Germany (10782): temperature & dewpoint: 12.10.2018 03:00:00 - 18.10.2018 03:00:00 (CEST)Waldmünchen, Germany (10782): temperature 5cm & temperature -5cm: 12.10.2018 03:00:00 - 18.10.2018 03:00:00 (CEST)Waldmünchen, Germany (10782): temperature -20cm & temperature -100cm: 12.10.2018 03:00:00 - 18.10.2018 03:00:00 (CEST)Waldmünchen, Germany (10782): wind speed & gusts: 12.10.2018 03:00:00 - 18.10.2018 03:00:00 (CEST)Waldmünchen, Germany (10782): wind direction: 12.10.2018 03:00:00 - 18.10.2018 03:00:00 (CEST)Waldmünchen, Germany (10782): reduced air pressure: 12.10.2018 03:00:00 - 18.10.2018 03:00:00 (CEST)Waldmünchen, Germany (10782): visibility: 12.10.2018 03:00:00 - 18.10.2018 03:00:00 (CEST)Waldmünchen, Germany (10782): sunshine duration: 12.10.2018 03:00:00 - 18.10.2018 03:00:00 (CEST)Waldmünchen, Germany (10782): precipitation: 12.10.2018 03:00:00 - 18.10.2018 03:00:00 (CEST)
Date & Time tt [°C] td [°C] tt 5cm [°C] tt -5cm [°C] tt -20cm [°C] tt -100cm [°C] ff [km/h] ff [kn] fx [km/h] fx [kn] dd ppp [hPa] vv [km] sd [min] rr [mm]
18.10.2018 03:00:00 5,4 5,0 3,2 8,0 12,0 13,5 5 3 10 5 E 1021,1 2,0 0 0,0
18.10.2018 02:00:00 5,7 5,4 3,4 8,5 12,2 13,5 4 2 13 7 NW 1021,2 2,2 0 0,0
18.10.2018 01:00:00 5,7 5,2 4,8 8,8 12,5 13,5 3 2 9 5 E 1021,4 2,5 0 0,0
18.10.2018 00:00:00 6,6 6,2 4,2 9,3 12,7 13,5 2 1 6 4 NE 1021,2 2,8 0 0,0
17.10.2018 23:00:00 7,6 7,1 4,9 10,0 12,9 13,5 3 2 12 6 W 1021,0 4,6 0 0,0
17.10.2018 22:00:00 7,7 7,2 6,1 10,6 13,0 13,5 3 2 10 5 NE 1020,9 4,1 0 0,0
17.10.2018 21:00:00 9,1 7,9 7,4 11,4 13,2 13,5 3 2 6 3 E 1020,3 6 0 0,0
17.10.2018 20:00:00 10,2 8,4 8,4 12,4 13,3 13,5 5 3 8 4 E 1019,8 7 0 0,0
17.10.2018 19:00:00 12,7 9,2 9,7 13,7 13,2 13,5 4 2 8 4 E 1018,9 8 0 0,0
17.10.2018 18:00:00 15,9 9,3 13,9 15,3 13,0 13,5 6 4 11 6 NE 1018,0 9 45 0,0
17.10.2018 17:00:00 19,7 7,0 19,2 16,7 12,7 13,5 4 2 11 6 SW 1017,0 12 60 0,0
17.10.2018 16:00:00 19,6 7,0 21,1 17,8 12,3 13,5 6 4 11 6 SW 1017,3 11 60 0,0
17.10.2018 15:00:00 19,5 7,4 22,0 18,2 11,8 13,5 3 2 11 6 S 1017,5 9 60 0,0
17.10.2018 14:00:00 18,7 7,7 22,4 17,6 11,3 13,5 4 2 12 7 W 1018,2 10 60 0,0
17.10.2018 13:00:00 17,4 8,3 20,7 16,2 11,0 13,5 7 4 11 6 W 1018,9 8 60 0,0
17.10.2018 12:00:00 16,0 8,6 19,5 13,8 10,7 13,5 4 2 7 4 WSW 1019,7 9 60 0,0
17.10.2018 11:00:00 11,7 7,7 14,6 11,0 10,7 13,5 3 2 8 4 SW 1020,7 8 60 0,0
17.10.2018 10:00:00 8,6 6,6 10,5 8,5 10,8 13,5 3 1 7 4 W 1021,0 6 60 0,0
17.10.2018 09:00:00 5,3 4,6 6,0 6,8 10,9 13,5 3 2 5 3 ESE 1021,9 3,5 25 0,0
17.10.2018 08:00:00 3,9 3,7 2,7 6,6 11,1 13,5 1 1 7 4 ESE 1022,1 2,3 0 0,0
17.10.2018 07:00:00 3,7 3,3 2,8 6,8 11,3 13,5 6 3 7 4 E 1021,9 1,9 0 0,0
17.10.2018 06:00:00 4,1 3,7 3,0 7,1 11,5 13,5 0 0 3 2 N 1021,8 2,7 0 0,0
17.10.2018 05:00:00 4,1 3,7 3,0 7,4 11,7 13,5 4 2 6 3 E 1021,8 3,0 0 0,0
17.10.2018 04:00:00 4,4 4,0 3,7 7,7 11,9 13,5 4 2 7 4 E 1021,6 3,2 0 0,0
17.10.2018 03:00:00 5,3 5,0 3,6 8,1 12,1 13,5 4 2 5 3 E 1021,7 3,4 0 0,0
17.10.2018 02:00:00 6,0 5,6 4,4 8,6 12,4 13,5 1 1 4 2 S 1021,5 5 0 0,0
17.10.2018 01:00:00 5,9 5,4 4,6 9,0 12,6 13,5 0 0 6 3 N 1021,7 5 0 0,0
17.10.2018 00:00:00 6,7 6,1 5,2 9,5 12,8 13,5 3 2 6 3 E 1021,5 6 0 0,0
16.10.2018 23:00:00 7,0 6,1 5,7 10,1 13,0 13,6 0 0 6 3 N 1021,6 7 0 0,0
16.10.2018 22:00:00 7,9 6,8 6,4 10,8 13,2 13,6 5 3 6 4 E 1021,3 8 0 0,0
16.10.2018 21:00:00 8,8 7,1 6,7 11,6 13,3 13,6 4 2 8 5 E 1020,9 9 0 0,0
16.10.2018 20:00:00 10,9 8,2 9,6 12,6 13,4 13,6 4 2 9 5 E 1020,3 11 0 0,0
16.10.2018 19:00:00 13,8 8,2 10,2 13,9 13,3 13,6 4 2 6 4 ENE 1019,3 15 0 0,0
16.10.2018 18:00:00 17,1 7,7 13,8 15,5 13,1 13,6 4 2 14 8 WSW 1018,2 15 46 0,0
16.10.2018 17:00:00 19,7 7,0 19,9 16,9 12,8 13,6 7 4 13 7 WSW 1017,7 15 57 0,0
16.10.2018 16:00:00 19,7 7,1 21,2 17,7 12,4 13,6 11 6 14 7 W 1017,6 18 50 0,0
16.10.2018 15:00:00 20,0 7,0 22,6 18,5 11,9 13,6 9 5 14 8 W 1017,4 15 60 0,0
16.10.2018 14:00:00 19,2 7,0 22,6 18,0 11,4 13,6 8 5 14 7 W 1017,8 14 60 0,0
16.10.2018 13:00:00 17,8 6,5 21,0 16,5 11,0 13,6 5 3 12 6 W 1018,3 15 60 0,0
16.10.2018 12:00:00 15,9 7,0 19,6 14,2 10,7 13,6 4 2 8 4 WSW 1018,8 14 57 0,0
16.10.2018 11:00:00 11,9 6,0 12,9 11,5 10,7 13,6 4 2 6 3 W 1019,5 14 51 0,0
16.10.2018 10:00:00 8,6 5,8 10,3 8,2 10,8 13,6 4 2 8 5 W 1020,4 12 60 0,0
16.10.2018 09:00:00 5,6 4,1 5,7 6,4 10,9 13,6 4 2 6 3 ESE 1020,9 7 45 0,0
16.10.2018 08:00:00 3,6 3,1 2,2 6,3 11,1 13,6 0 0 7 4 N 1020,8 5 0 0,0
16.10.2018 07:00:00 3,8 3,2 2,4 6,5 11,4 13,6 6 3 10 5 E 1020,5 5 0 0,0
16.10.2018 06:00:00 4,4 3,6 2,6 6,7 11,6 13,6 4 2 7 4 E 1020,0 7 0 0,0
16.10.2018 05:00:00 5,0 4,0 2,6 7,0 11,8 13,6 4 2 7 4 ENE 1019,5 9 0 0,0
16.10.2018 04:00:00 5,3 4,1 2,9 7,4 12,1 13,6 5 3 9 5 WNW 1019,4 8 0 0,0
16.10.2018 03:00:00 6,1 4,9 2,6 7,7 12,3 13,6 3 2 5 3 W 1019,0 10 0 0,0
16.10.2018 02:00:00 6,4 4,8 2,7 8,3 12,6 13,6 3 2 5 3 SE 1018,9 11 0 0,0
16.10.2018 01:00:00 7,6 5,9 4,1 8,8 12,8 13,6 2 1 4 2 E 1018,4 13 0 0,0
16.10.2018 00:00:00 8,3 5,9 4,5 9,5 13,0 13,6 4 2 6 4 E 1018,3 13 0 0,0
15.10.2018 23:00:00 9,2 6,4 7,4 10,4 13,2 13,6 5 3 9 5 E 1017,8 13 0 0,0
15.10.2018 22:00:00 10,3 6,7 8,3 11,2 13,4 13,6 6 4 10 6 E 1017,4 14 0 0,0
15.10.2018 21:00:00 13,2 7,0 9,0 12,1 13,5 13,6 3 1 11 6 E 1016,7 16 0 0,0
15.10.2018 20:00:00 13,8 7,4 9,5 13,2 13,5 13,6 4 2 6 3 NNE 1016,4 17 0 0,0
15.10.2018 19:00:00 14,2 7,2 12,6 14,4 13,4 13,6 8 4 16 9 NE 1016,1 17 0 0,0
15.10.2018 18:00:00 16,4 7,0 16,5 15,5 13,3 13,6 9 5 17 9 NNE 1015,5 19 56 0,0
15.10.2018 17:00:00 17,4 6,9 18,0 16,1 13,1 13,6 11 6 20 11 NNE 1015,4 20 41 0,0
15.10.2018 16:00:00 17,0 5,9 18,7 16,3 12,8 13,6 12 7 21 12 NNE 1015,6 18 21 0,0
15.10.2018 15:00:00 16,1 5,6 16,7 16,6 12,5 13,6 15 8 22 12 NNE 1016,0 23 0 0,0
15.10.2018 14:00:00 18,8 5,7 19,3 17,4 12,0 13,6 9 5 19 10 NE 1015,3 24 15 0,0
15.10.2018 13:00:00 20,0 5,5 20,9 17,5 11,6 13,6 13 7 18 10 S 1015,1 21 57 0,0
15.10.2018 12:00:00 18,9 6,5 23,6 15,4 11,3 13,6 2 1 8 5 NNE 1015,6 22 60 0,0
15.10.2018 11:00:00 16,3 7,4 19,6 12,3 11,2 13,6 0 0 5 3 N 1016,1 17 60 0,0
15.10.2018 10:00:00 10,9 5,5 13,9 9,2 11,3 13,6 3 2 6 3 SW 1017,3 19 60 0,0
15.10.2018 09:00:00 7,2 3,7 7,5 7,1 11,5 13,6 3 1 5 3 SW 1017,9 14 48 0,0
15.10.2018 08:00:00 5,3 3,5 2,7 7,0 11,7 13,6 0 0 6 4 N 1018,1 13 0 0,0
15.10.2018 07:00:00 5,8 3,9 2,2 7,3 12,0 13,6 0 0 6 3 N 1017,7 14 0 0,0
15.10.2018 06:00:00 6,6 4,6 3,2 7,7 12,2 13,6 4 2 10 5 E 1017,1 16 0 0,0
15.10.2018 05:00:00 7,1 4,5 3,1 8,1 12,4 13,6 3 2 5 3 SW 1016,8 16 0 0,0
15.10.2018 04:00:00 8,1 4,9 4,1 8,7 12,6 13,6 3 1 8 5 N 1016,4 17 0 0,0
15.10.2018 03:00:00 8,3 5,3 6,3 9,2 12,8 13,6 5 3 9 5 E 1016,4 17 0 0,0
15.10.2018 02:00:00 9,8 6,1 6,6 9,7 13,0 13,6 5 3 15 8 ENE 1016,0 18 0 0,0
15.10.2018 01:00:00 10,4 5,3 6,5 10,2 13,2 13,6 3 2 11 6 W 1015,7 20 0 0,0
15.10.2018 00:00:00 12,2 5,9 8,5 10,6 13,5 13,6 5 3 19 10 N 1015,1 21 0 0,0
14.10.2018 23:00:00 13,0 6,2 9,6 11,0 13,7 13,6 3 2 10 5 E 1014,8 20 0 0,0
14.10.2018 22:00:00 13,1 6,7 8,1 11,6 13,9 13,6 4 2 9 5 E 1014,9 19 0 0,0
14.10.2018 21:00:00 11,5 7,5 8,9 12,5 14,0 13,6 5 3 19 10 ENE 1015,4 14 0 0,0
14.10.2018 20:00:00 11,8 8,7 9,9 13,5 14,1 13,6 9 5 13 7 E 1015,1 12 0 0,0
14.10.2018 19:00:00 15,0 9,2 12,1 14,8 14,0 13,6 6 3 9 5 NE 1014,6 16 1 0,0
14.10.2018 18:00:00 18,6 8,7 16,6 16,4 13,8 13,6 8 4 25 13 NE 1013,6 17 60 0,0
14.10.2018 17:00:00 20,1 8,4 20,2 17,6 13,5 13,6 19 11 28 15 NE 1013,6 15 60 0,0
14.10.2018 16:00:00 20,5 8,0 22,1 18,7 13,1 13,6 18 10 29 16 NE 1013,7 14 60 0,0
14.10.2018 15:00:00 21,5 7,0 24,6 19,6 12,6 13,6 14 7 22 12 NE 1013,6 20 60 0,0
14.10.2018 14:00:00 21,8 4,0 24,7 19,2 12,0 13,6 5 3 16 9 E 1014,0 21 60 0,0
14.10.2018 13:00:00 21,2 4,7 23,1 17,4 11,6 13,6 10 5 21 11 SSE 1015,0 14 60 0,0
14.10.2018 12:00:00 19,5 5,3 22,6 15,3 11,3 13,6 5 3 10 5 WSW 1015,4 18 60 0,0
14.10.2018 11:00:00 15,5 9,0 18,9 12,2 11,2 13,6 5 3 7 4 W 1016,8 12 60 0,0
14.10.2018 10:00:00 11,1 7,4 12,3 9,2 11,3 13,6 3 1 5 3 WSW 1018,0 10 60 0,0
14.10.2018 09:00:00 6,7 5,2 7,3 6,9 11,5 13,6 4 2 7 4 WSW 1019,1 5 51 0,0
14.10.2018 08:00:00 5,2 4,7 2,5 6,7 11,8 13,6 2 1 6 3 W 1019,4 2,1 0 0,0
14.10.2018 07:00:00 6,0 5,7 2,8 7,0 12,0 13,6 3 2 6 3 W 1019,2 2,0 0 0,0
14.10.2018 06:00:00 6,3 6,0 2,8 7,4 12,3 13,6 2 1 5 3 SSW 1019,4 4,9 0 0,0
14.10.2018 05:00:00 6,2 5,7 2,5 7,8 12,5 13,6 3 2 5 3 SSW 1019,7 3,3 0 0,0
14.10.2018 04:00:00 7,4 6,8 3,8 8,2 12,8 13,6 0 0 6 4 N 1019,5 4,6 0 0,0
14.10.2018 03:00:00 7,6 6,9 3,3 8,7 13,0 13,6 3 1 5 3 ESE 1019,9 5 0 0,0
14.10.2018 02:00:00 8,5 7,2 4,7 9,3 13,3 13,6 3 2 7 4 ESE 1020,0 7 0 0,0
14.10.2018 01:00:00 8,6 7,0 5,6 10,0 13,5 13,6 3 1 7 4 S 1020,3 6 0 0,0
14.10.2018 00:00:00 11,3 8,3 8,1 10,8 13,7 13,6 5 3 14 8 E 1019,9 9 0 0,0
13.10.2018 23:00:00 13,3 8,5 9,7 11,5 13,9 13,6 8 4 22 12 ENE 1019,7 11 0 0,0
13.10.2018 22:00:00 14,9 9,0 12,5 12,1 14,1 13,6 13 7 22 12 NE 1019,6 12 0 0,0
13.10.2018 21:00:00 14,2 8,4 9,5 12,6 14,2 13,6 3 1 16 8 NNW 1020,2 13 0 0,0
13.10.2018 20:00:00 13,8 8,5 11,5 13,7 14,3 13,6 13 7 21 11 ENE 1020,8 13 0 0,0
13.10.2018 19:00:00 15,8 8,5 12,8 14,8 14,3 13,6 10 6 20 11 NNE 1020,7 14 4 0,0
13.10.2018 18:00:00 18,2 7,4 16,9 16,2 14,1 13,6 12 7 22 12 NE 1020,3 17 60 0,0
13.10.2018 17:00:00 19,7 6,7 20,1 17,4 13,8 13,6 10 5 32 17 ENE 1020,3 17 60 0,0
13.10.2018 16:00:00 20,4 7,0 21,7 18,3 13,5 13,6 22 12 36 19 ENE 1020,5 17 60 0,0
13.10.2018 15:00:00 19,5 8,3 21,7 18,7 13,0 13,6 18 10 42 23 ENE 1021,4 11 60 0,0
13.10.2018 14:00:00 18,9 8,6 21,4 18,5 12,6 13,6 26 14 36 19 NE 1022,4 9 60 0,0
13.10.2018 13:00:00 19,5 8,3 23,8 17,8 12,1 13,6 16 9 24 13 NNE 1022,9 11 60 0,0
13.10.2018 12:00:00 19,0 9,0 22,4 15,7 11,9 13,6 18 10 23 13 NE 1023,6 11 60 0,0
13.10.2018 11:00:00 17,1 9,0 21,2 13,4 11,7 13,6 8 5 13 7 NE 1024,3 12 60 0,0
13.10.2018 10:00:00 12,7 9,5 14,2 10,4 11,8 13,6 6 4 10 5 SW 1025,7 10 60 0,0
13.10.2018 09:00:00 8,7 7,2 9,4 8,1 12,0 13,6 4 2 12 7 WSW 1026,7 7 51 0,0
13.10.2018 08:00:00 7,2 6,7 4,6 7,7 12,3 13,6 6 3 8 4 SSW 1027,3 7 0 0,0
13.10.2018 07:00:00 6,9 6,5 4,0 8,1 12,5 13,6 0 0 4 2 N 1027,4 2,7 0 0,0
13.10.2018 06:00:00 7,3 6,8 4,3 8,4 12,7 13,6 0 0 4 2 N 1027,2 5 0 0,0
13.10.2018 05:00:00 7,6 7,1 4,8 8,9 13,0 13,6 2 1 5 3 WNW 1026,9 7 0 0,0
13.10.2018 04:00:00 7,6 6,8 6,3 9,3 13,2 13,6 5 3 8 4 E 1027,0 9 0 0,0
13.10.2018 03:00:00 7,2 6,4 6,2 9,8 13,4 13,6 7 4 12 6 E 1027,3 7 0 0,0
13.10.2018 02:00:00 7,7 7,1 6,1 10,2 13,7 13,6 0 0 9 5 N 1027,4 6 0 0,0
13.10.2018 01:00:00 8,5 7,7 6,2 10,6 13,9 13,6 4 2 7 4 ENE 1027,3 7 0 0,0
13.10.2018 00:00:00 9,3 8,5 6,6 11,3 14,2 13,6 2 1 6 3 NNW 1027,1 7 0 0,0
12.10.2018 23:00:00 9,7 8,7 7,8 11,9 14,4 13,6 3 2 8 4 ENE 1027,1 8 0 0,0
12.10.2018 22:00:00 10,6 9,0 8,6 12,6 14,6 13,6 3 2 7 4 E 1027,0 8 0 0,0
12.10.2018 21:00:00 12,4 9,9 10,7 13,5 14,7 13,6 6 3 11 6 ESE 1026,5 10 0 0,0
12.10.2018 20:00:00 14,3 10,5 9,9 14,6 14,8 13,6 3 2 9 5 WSW 1025,7 11 0 0,0
12.10.2018 19:00:00 16,4 10,7 13,0 16,1 14,8 13,6 6 3 12 6 NE 1024,6 14 6 0,0
12.10.2018 18:00:00 20,8 10,7 19,0 17,7 14,6 13,6 4 2 10 6 N 1023,4 16 60 0,0
12.10.2018 17:00:00 22,9 7,8 22,7 19,2 14,2 13,6 8 5 10 5 S 1022,9 16 60 0,0
12.10.2018 16:00:00 23,0 7,6 25,3 20,3 13,7 13,6 6 3 11 6 WNW 1022,8 12 60 0,0
12.10.2018 15:00:00 22,8 8,2 26,0 20,8 13,2 13,6 8 4 14 7 W 1022,9 12 60 0,0
12.10.2018 14:00:00 21,7 7,2 25,2 20,2 12,7 13,6 6 3 16 8 W 1023,4 24 60 0,0
12.10.2018 13:00:00 20,0 7,6 23,8 18,8 12,2 13,6 8 4 12 6 WNW 1024,1 20 60 0,0
12.10.2018 12:00:00 18,3 7,5 20,9 17,0 11,8 13,6 6 3 12 7 W 1024,5 21 60 0,0
12.10.2018 11:00:00 16,9 7,5 20,8 15,0 11,6 13,6 6 3 10 6 W 1024,5 18 48 0,0
12.10.2018 10:00:00 14,3 9,2 18,7 12,3 11,6 13,6 4 2 6 3 WSW 1024,7 14 60 0,0
12.10.2018 09:00:00 10,0 8,5 11,5 9,3 11,6 13,6 0 0 4 2 N 1024,9 6 14 0,0
12.10.2018 08:00:00 8,3 7,5 6,5 9,2 11,7 13,6 2 1 9 5 W 1023,9 6 0 0,0
12.10.2018 07:00:00 8,3 7,3 7,7 9,4 11,8 13,6 3 1 10 5 NNE 1023,4 6 0 0,1
12.10.2018 06:00:00 7,9 7,0 7,7 9,1 11,9 13,6 3 1 9 5 ESE 1023,1 7 0 0,0
12.10.2018 05:00:00 7,2 6,4 6,9 8,7 12,1 13,6 9 5 11 6 E 1022,7 7 0 0,0
12.10.2018 04:00:00 6,7 6,0 6,2 8,2 12,4 13,6 5 3 9 5 E 1022,3 7 0 0,0
12.10.2018 03:00:00 6,4 5,7 5,0 8,4 12,6 13,6 5 3 8 4 E 1021,8 7 0 0,0

tt = temperature
td = dewpoint
tt 5cm = temperature 5cm
tt -5cm = temperature -5cm
tt -20cm = temperature -20cm
tt -100cm = temperature -100cm
ff = wind speed
fx = gusts
dd = wind direction
ppp = reduced air pressure
vv = visibility
sd = sunshine duration
rr = precipitation

Next stations